Regional Weather Roundup
Issued by NWS Upton, NY

Current Version | Previous Version | Graphics & Text | Print | Product List | Glossary Off
Versions: 1 2 3 4 5 6 7 8 9 10 11 12 13 14 15 16 17 18 19 20 21 22 23 24 25 26 27 28 29 30 31 32 33 34 35 36 37 38 39 40 41 42 43 44 45 46 47 48 49 50

000
ASUS41 KOKX 261305
RWROKX

REGIONAL WEATHER ROUNDUP
NATIONAL WEATHER SERVICE NEW YORK NY
800 AM EST WED NOV 26 2014

NOTE: "FAIR" INDICATES FEW OR NO CLOUDS BELOW 12,000 FEET WITH NO
SIGNIFICANT WEATHER AND/OR OBSTRUCTIONS TO VISIBILITY.

NYZ071-072-176-178-NJZ106-104-261400-
NEW YORK CITY METRO AREA


CITY           SKY/WX    TMP DP  RH WIND       PRES   REMARKS
CENTRAL PARK   RAIN      40  35  83 NE8       30.18R WCI  34
LAGUARDIA APRT LGT RAIN  41  34  76 NE13      30.17R
KENNEDY INTL   LGT RAIN  42  35  76 NE10      30.17R
NEWARK/LIBERTY LGT RAIN  41  35  79 NE17G23   30.15S
BRNX BOT. GARD   N/A     39  34  81 NE15      30.16F WCI  31
TETERBORO      LGT RAIN  41  34  76 NE6       30.15R
$$

NYZ177-179-078>081-261400-
LONG ISLAND NEW YORK

CITY           SKY/WX    TMP DP  RH WIND       PRES   REMARKS
FARMINGDALE    NOT AVBL
ISLIP          CLOUDY    44  33  65 N12       30.13R
SHIRLEY        LGT RAIN  42  36  79 N8        30.16R
WESTHAMPTON    LGT RAIN  42  36  79 N12       30.16R
MONTAUK POINT    N/A     46  37  71 NE5       30.17R
$$

NYZ052-065-067-261400-
HUDSON VALLEY

CITY           SKY/WX    TMP DP  RH WIND       PRES   REMARKS
WHITE PLAINS   RAIN      37  32  82 N10       30.14S WCI  30
NEWBURGH       LGT SNOW  37  30  75 NE8       30.16S FOG     WCI  31
MONTGOMERY     CLOUDY    39  29  67 NE8       30.15S WCI  33
POUGHKEEPSIE   CLOUDY    41  26  55 N9        30.19R
ALBANY         CLOUDY    37  27  67 N3        30.24R
$$

NJZ001-105-106-008-010-013-015-019>022-104-261400-
NEW JERSEY

CITY           SKY/WX    TMP DP  RH WIND       PRES   REMARKS
NEWARK/LIBERTY LGT RAIN  41  35  79 NE17G23   30.15S
TETERBORO      LGT RAIN  41  34  76 NE6       30.15R
CALDWELL       LGT RAIN  39  32  76 NE6       30.14F WCI  35
MORRISTOWN     LGT RAIN  39  36  87 N8G16     30.14R WCI  34
SOMERVILLE     LGT RAIN  40  34  79 NE7       30.10F
SUSSEX         LGT RAIN  39  30  70 NE8       30.13F WCI  33
ANDOVER          N/A     37  32  82 VRB3      30.12F
TRENTON        LGT RAIN  40  36  86 E7        30.10F FOG
MILLVILLE      LGT RAIN  42  39  89 NE14G22   30.05F
ATLANTIC CITY  LGT RAIN  42  41  96 N9        30.04F FOG
WRIGHTSTOWN    LGT RAIN  40  37  88 N13       30.06F WCI  33
TOMS RIVER     CLOUDY    43  39  87 NE3       30.07F
BELMAR         CLOUDY    45  30  57 NE13G20   30.10F
$$

PAZ047>061-062-071-261400-
EASTERN PENNSYLVANIA

CITY           SKY/WX    TMP DP  RH WIND       PRES   REMARKS
PHILADELPHIA   LGT RAIN  41  37  86 NE13G21   30.10S FOG
ALLENTOWN      LGT RAIN  38  32  79 N12G20    30.11F WCI  30
SCRANTON       CLOUDY    38  28  67 NE8       30.12F WCI  32
$$

CTZ002-004>006-009-010-012-RIZ004-006-007-MAZ004-011-015-261400-
SOUTHERN NEW ENGLAND
 IN CT

CITY           SKY/WX    TMP DP  RH WIND       PRES   REMARKS
BRADLEY INTL   CLOUDY    42  27  55 N7        30.18R
HARTFORD       LGT RAIN  40  32  73 VRB6      30.18R
DANBURY        LGT RAIN  38  30  73 N12       30.18R WCI  30
WTRBRY/OXFORD  LGT SNOW  37  27  65 NE7       30.18R FOG     WCI  32
BRIDGEPORT     LGT RAIN  41  35  79 N8        30.18R
MERIDEN        RAIN      40  31  70 N6        30.19R
NEW HAVEN      RAIN      42  33  70 N12       30.17R FOG
CHESTER        LGT RAIN  39  32  75 N7        30.18R WCI  34
GROTON         LGT RAIN  43  32  65 N12       30.17R
WILLIMANTIC    LGT RAIN  40  35  83 NW6       30.17S

 IN RI

CITY           SKY/WX    TMP DP  RH WIND       PRES   REMARKS
PROVIDENCE     LGT RAIN  44  31  60 N9        30.15F
BLOCK ISLAND   CLOUDY    45  36  70 NE12      30.14S
WESTERLY       CLOUDY    45  31  58 N7        30.16R

 IN MA

CITY           SKY/WX    TMP DP  RH WIND       PRES   REMARKS
BOSTON         CLOUDY    45  28  51 N5        30.18R
WORCESTER      CLOUDY    38  27  64 N8        30.16R WCI  32
WESTFIELD      CLOUDY    40  28  62 N7        30.19R
PROVINCETOWN   CLOUDY    48  36  61 N12       30.16F
NANTUCKET      LGT RAIN  46  41  82 NE8       30.16R
$$

ANZ330-335-338-340-345-350-353-355-261400-
COASTAL MARINE OBSERVATIONS


STATION/POSITION TIME  SKY/WX   TEMP    WIND        PRES    VSBY  WAVE
                                AIR SEA DIR/SP/G                  HT/PER
                 (UTC)          (F)     (DEG/KT/KT) (MB)    (MI)  (FT/S)
NY HARB ENTRANCE 1300            47 53   40/ 19/ 23 1020.3          4/ 9
4S FIRE IS       1300               53                N/A           3/ 8
20S FIRE ISLAND  1300            47 54   40/ 21/ 25 1018.3          4/ 9
23SW MTP         1300                                 N/A           4/ 8
HUDSON CANYON    1300            51 59   50/ 21/ 25 1016.6          5/ 9
EXECUTION ROCKS  1300            43 48   40/ 14/ 17   N/A
WESTERN LI SOUND 1300            42      40/ 12/ 16   N/A           1/ 3
CENTRAL LI SOUND 1200            45 50   10/ 16/ 19   N/A           2/ 3
EASTERN LI SOUND 1200            47 52   30/ 14/ 17   N/A
ROBBINS REEF     1300            42      60/ 14/ 17 1019.9
$$


>>>>>>>>>>>>>>>>>>>>>>>>>>>> KEY <<<<<<<<<<<<<<<<<<<<<<<<<<<
>                                                          <
>     SKY/WX - SKY CONDITION/PRESENT WEATHER               <
>     TMP    - TEMPERATURE IN FAHRENHEIT                   <
>     DP     - DEWPOINT IN FAHRENHEIT                      <
>     RH     - RELATIVE HUMIDITY IN PERCENT                <
>     WIND   - DIRECTION AND SPEED IN MPH                  <
>     PRES   - MEAN SEA LEVEL PRESSURE IN INCHES OF HG     <
>     WCI    - WIND CHILL INDEX                            <
>     VSB    - VISIBILITY IN MILES                         <
>     HX     - HEAT INDEX                                  <
>     TC     - TEMPERATURE IN CELSIUS                      <
>     VRB    - VARIABLE WIND DIRECTION                     <
>                                                          <
>>>>>>>>>>>>>>>>>>>>>>>>>>>> KEY <<<<<<<<<<<<<<<<<<<<<<<<<<<





USA.gov is the U.S. government's official web portal to all federal, state and local government web resources and services.